Hutchinson, MN

10:18 AM CST on January 16, 2017 (GMT -0600)
Hutchinson Municipal-Butler

Weather History for KHCD - November, 2011

Change the Weather History Date:

Monday, November 28, 2011

  Actual Average Record
Temperature  
Mean Temperature 34 °F -  
Max Temperature 49 °F 30 °F 53 °F (1998)
Min Temperature 19 °F 13 °F -15 °F (1985)
Degree Days  
Heating Degree Days 31    
Moisture  
Dew Point 23 °F    
Average Humidity 75    
Maximum Humidity 93    
Minimum Humidity 42    
Precipitation  
Precipitation 0.00 in - - ()
Sea Level Pressure  
Sea Level Pressure 30.07 in    
Wind  
Wind Speed 5 mph (South)    
Max Wind Speed 16 mph    
Max Gust Speed 22 mph    
Visibility 10 miles    
Events      
Averages and records for this station are not official NWS values.
T = Trace of Precipitation, MM = Missing Value Source: NWS Daily Summary

Daily Weather History Graph

Daily Weather History Graph

Search for Another Location

Airport or City:

Trip Planner

Search our weather history database for the weather conditions in past years. The results will help you decide how hot, cold, wet, or windy it might be!

Date:

Astronomy

Nov. 28, 2011 Rise Set
Actual Time 7:31 AM CST 4:39 PM CST
Civil Twilight 6:58 AM CST 5:12 PM CST
Nautical Twilight 6:22 AM CST 5:48 PM CST
Astronomical Twilight 5:46 AM CST 6:23 PM CST
Moon 10:40 AM CST (11/28) 8:29 PM CST (11/28)
Length of Visible Light 10h 13m
Length of Day
9h 08m
Waxing Crescent, 16% of the Moon is Illuminated
Nov 28
Waxing Crescent
Dec 2
First Quarter
Dec 10
Full
Dec 17
Last Quarter
Dec 24
New

Hourly Weather History & Observations

Time (CST) Temp. Windchill Dew Point Humidity Pressure Visibility Wind Dir Wind Speed Gust Speed Precip Events Conditions
12:13 AM 23.4 °F - 20.3 °F 88% 30.13 in 10.0 mi Calm Calm - N/A   Clear
12:32 AM 21.4 °F 16.6 °F 18.5 °F 89% 30.13 in 10.0 mi SSE 3.5 mph - N/A   Clear
12:53 AM 22.1 °F 17.4 °F 19.4 °F 89% 30.13 in 10.0 mi SSE 3.5 mph - N/A   Clear
1:13 AM 20.7 °F - 18.1 °F 90% 30.13 in 10.0 mi Calm Calm - N/A   Clear
1:32 AM 21.2 °F - 18.9 °F 91% 30.11 in 10.0 mi Calm Calm - N/A   Clear
1:53 AM 21.0 °F - 18.7 °F 91% 30.11 in 10.0 mi Calm Calm - N/A   Clear
2:12 AM 20.8 °F 16.0 °F 18.5 °F 91% 30.12 in 10.0 mi South 3.5 mph - N/A   Clear
2:32 AM 20.8 °F 14.4 °F 18.5 °F 91% 30.11 in 10.0 mi South 4.6 mph - N/A   Clear
2:53 AM 21.4 °F 15.1 °F 19.4 °F 92% 30.11 in 10.0 mi South 4.6 mph - N/A   Clear
3:13 AM 21.9 °F 17.2 °F 19.9 °F 92% 30.11 in 10.0 mi South 3.5 mph - N/A   Clear
3:32 AM 19.4 °F - 17.4 °F 92% 30.13 in 10.0 mi Calm Calm - N/A   Clear
3:53 AM 19.9 °F 14.9 °F 18.0 °F 92% 30.11 in 10.0 mi South 3.5 mph - N/A   Clear
4:12 AM 19.4 °F - 17.6 °F 93% 30.10 in 10.0 mi Calm Calm - N/A   Clear
4:33 AM 19.6 °F 11.7 °F 17.8 °F 93% 30.07 in 10.0 mi SE 5.8 mph - N/A   Clear
4:52 AM 21.2 °F 14.9 °F 19.4 °F 93% 30.07 in 10.0 mi SSE 4.6 mph - N/A   Clear
5:13 AM 21.0 °F 16.2 °F 19.0 °F 92% 30.08 in 10.0 mi SSE 3.5 mph - N/A   Clear
5:33 AM 20.8 °F - 19.0 °F 93% 30.08 in 10.0 mi Calm Calm - N/A   Clear
5:52 AM 20.8 °F 16.0 °F 19.0 °F 93% 30.08 in 10.0 mi South 3.5 mph - N/A   Clear
6:13 AM 20.8 °F 16.0 °F 19.0 °F 93% 30.07 in 10.0 mi SSE 3.5 mph - N/A   Clear
6:33 AM 21.2 °F 16.4 °F 19.4 °F 93% 30.06 in 10.0 mi SSE 3.5 mph - N/A   Clear
6:52 AM 20.5 °F 12.8 °F 18.5 °F 92% 30.05 in 10.0 mi SE 5.8 mph - N/A   Clear
7:13 AM 21.2 °F 12.6 °F 19.4 °F 93% 30.04 in 10.0 mi SE 6.9 mph - N/A   Clear
7:52 AM 22.1 °F 17.4 °F 20.1 °F 92% 30.04 in 10.0 mi SSE 3.5 mph - N/A   Clear
8:13 AM 23.0 °F 17.0 °F 20.8 °F 91% 30.04 in 10.0 mi SSE 4.6 mph - N/A   Clear
8:33 AM 24.8 °F 17.9 °F 22.5 °F 91% 30.05 in 10.0 mi SSE 5.8 mph - N/A   Clear
8:52 AM 27.7 °F 20.4 °F 24.8 °F 89% 30.04 in 10.0 mi SSE 6.9 mph - N/A   Clear
9:13 AM 29.7 °F 20.7 °F 25.5 °F 85% 30.04 in 10.0 mi South 10.4 mph - N/A   Clear
9:33 AM 29.8 °F 22.2 °F 24.4 °F 80% 30.04 in 10.0 mi SSE 8.1 mph - N/A   Clear
9:52 AM 32.0 °F 22.5 °F 25.3 °F 76% 30.04 in 10.0 mi South 12.7 mph 16.1 mph N/A   Clear
10:12 AM 34.3 °F 26.5 °F 26.1 °F 72% 30.04 in 10.0 mi South 10.4 mph 18.4 mph N/A   Clear
10:33 AM 34.3 °F 25.5 °F 25.3 °F 70% 30.04 in 10.0 mi South 12.7 mph - N/A   Clear
10:53 AM 36.9 °F 28.7 °F 26.1 °F 65% 30.03 in 10.0 mi SSE 12.7 mph 18.4 mph N/A   Clear
11:12 AM 35.4 °F 27.3 °F 24.8 °F 65% 30.03 in 10.0 mi South 11.5 mph 17.3 mph N/A   Clear
11:33 AM 36.9 °F 29.1 °F 25.3 °F 63% 30.03 in 10.0 mi South 11.5 mph 16.1 mph N/A   Clear
11:52 AM 39.2 °F 30.5 °F 26.1 °F 59% 30.03 in 10.0 mi South 16.1 mph 21.9 mph N/A   Clear
12:12 PM 39.4 °F 31.1 °F 26.2 °F 59% 30.02 in 10.0 mi South 15.0 mph 18.4 mph N/A   Clear
12:53 PM 41.9 °F 35.9 °F 26.2 °F 54% 30.01 in 10.0 mi South 10.4 mph 18.4 mph N/A   Clear
1:12 PM 42.4 °F 37.0 °F 25.3 °F 51% 30.02 in 10.0 mi SSW 9.2 mph 17.3 mph N/A   Clear
1:33 PM 42.3 °F 35.9 °F 25.2 °F 51% 30.03 in 10.0 mi SSW 11.5 mph 17.3 mph N/A   Clear
1:53 PM 43.2 °F 38.4 °F 25.0 °F 49% 30.02 in 10.0 mi SSW 8.1 mph - N/A   Clear
2:12 PM 44.8 °F 41.0 °F 26.1 °F 48% 30.02 in 10.0 mi SSW 6.9 mph - N/A   Clear
2:33 PM 43.7 °F 40.3 °F 25.3 °F 48% 30.03 in 10.0 mi SSW 5.8 mph - N/A   Clear
2:53 PM 46.4 °F 42.9 °F 26.6 °F 46% 30.04 in 10.0 mi SW 6.9 mph - N/A   Clear
3:12 PM 49.5 °F - 27.7 °F 43% 30.03 in 10.0 mi SSW 3.5 mph - N/A   Clear
3:33 PM 47.7 °F - 25.7 °F 42% 30.05 in 10.0 mi West 5.8 mph - N/A   Clear
3:52 PM 49.5 °F - 27.3 °F 42% 30.05 in 10.0 mi WNW 10.4 mph - N/A   Clear
4:13 PM 46.9 °F - 27.7 °F 47% 30.06 in 10.0 mi WNW 10.4 mph - N/A   Clear
4:33 PM 43.3 °F 38.1 °F 26.4 °F 51% 30.07 in 10.0 mi NW 9.2 mph - N/A   Clear
4:52 PM 41.9 °F 36.9 °F 26.4 °F 54% 30.09 in 10.0 mi NW 8.1 mph - N/A   Clear
5:33 PM 37.8 °F 34.2 °F 25.7 °F 62% 30.10 in 10.0 mi WNW 4.6 mph - N/A   Clear
5:52 PM 36.9 °F 34.3 °F 26.2 °F 65% 30.11 in 10.0 mi WNW 3.5 mph - N/A   Clear
6:13 PM 39.4 °F 35.2 °F 27.1 °F 62% 30.12 in 10.0 mi WNW 5.8 mph - N/A   Clear
6:33 PM 39.4 °F 35.2 °F 27.5 °F 62% 30.13 in 10.0 mi WNW 5.8 mph - N/A   Clear
6:52 PM 36.9 °F 32.2 °F 26.4 °F 66% 30.13 in 10.0 mi WNW 5.8 mph - N/A   Clear
7:13 PM 34.7 °F 28.8 °F 25.7 °F 70% 30.13 in 10.0 mi NW 6.9 mph - N/A   Clear
7:33 PM 36.5 °F 29.7 °F 29.1 °F 75% 30.14 in 10.0 mi NNW 9.2 mph - N/A   Clear
8:13 PM 36.9 °F 30.1 °F 30.2 °F 77% 30.16 in 10.0 mi NW 9.2 mph - N/A   Clear
8:32 PM 36.9 °F 30.1 °F 30.6 °F 78% 30.17 in 10.0 mi NNW 9.2 mph - N/A   Clear
8:53 PM 36.9 °F 29.6 °F 30.4 °F 77% 30.18 in 10.0 mi NW 10.4 mph - N/A   Clear
9:12 PM 36.9 °F 29.6 °F 30.7 °F 79% 30.19 in 10.0 mi NNW 10.4 mph - N/A   Clear
9:52 PM 34.7 °F 26.4 °F 30.2 °F 84% 30.21 in 10.0 mi NNW 11.5 mph - N/A   Clear
10:13 PM 35.6 °F 28.0 °F 30.9 °F 83% 30.21 in 10.0 mi NNW 10.4 mph - N/A   Clear
10:32 PM 35.4 °F 28.4 °F 30.4 °F 82% 30.22 in 10.0 mi North 9.2 mph - N/A   Clear
11:12 PM 34.3 °F 27.7 °F 28.0 °F 78% 30.23 in 10.0 mi North 8.1 mph - N/A   Clear
11:33 PM 34.3 °F 26.5 °F 27.5 °F 76% 30.23 in 10.0 mi NNW 10.4 mph - N/A   Clear
11:52 PM 34.3 °F 25.9 °F 27.5 °F 76% 30.24 in 10.0 mi NNW 11.5 mph 16.1 mph N/A   Clear